This is the latest recevied weather packets stored in our database for station/object W7BTL. If no packets are shown the sender has not sent any weather packets the latest 10 day(s).
| Time | Temp. | Humidity | Pressure | Rain* | Wind** | Luminosity | Snow |
|---|---|---|---|---|---|---|---|
| 1788314539 | 22.78° C | 62% | 1013.1 hPa | 0 mm | - | 14 W/m² | - |
| 1788314234 | 22.78° C | 61% | 1013.1 hPa | 0 mm | - | 17 W/m² | - |
| 1788313931 | 23.33° C | 62% | 1013.1 hPa | 0 mm | - | 20 W/m² | - |
| 1788313626 | 23.33° C | 60% | 1013.3 hPa | 0 mm | - | 23 W/m² | - |
| 1788313322 | 23.89° C | 59% | 1013.2 hPa | 0 mm | - | 26 W/m² | - |
| 1788313021 | 23.89° C | 57% | 1013.1 hPa | 0 mm | - | 29 W/m² | - |
| 1788312716 | 25° C | 54% | 1013.1 hPa | 0 mm | - | 39 W/m² | - |
| 1788312412 | 25° C | 55% | 1013.4 hPa | 0 mm | - | 52 W/m² | - |
| 1788312108 | 25.56° C | 54% | 1013.1 hPa | 0 mm | - | 60 W/m² | - |
| 1788311803 | 25.56° C | 53% | 1013.1 hPa | 0 mm | - | 68 W/m² | - |
| 1788311503 | 25.56° C | 54% | 1013.2 hPa | 0 mm | - | 78 W/m² | - |
| 1788311202 | 25.56° C | 52% | 1013.2 hPa | 0 mm | - | 88 W/m² | - |
| 1788310898 | 25.56° C | 53% | 1013.4 hPa | 0 mm | - | 98 W/m² | - |
| 1788310596 | 26.11° C | 51% | 1013.3 hPa | 0 mm | - | 110 W/m² | - |
| 1788310292 | 26.11° C | 51% | 1013.3 hPa | 0 mm | - | 123 W/m² | - |
| 1788309991 | 26.11° C | 50% | 1013.5 hPa | 0 mm | - | 136 W/m² | - |
| 1788309686 | 26.67° C | 49% | 1013.4 hPa | 0 mm | - | 150 W/m² | - |
| 1788309382 | 26.67° C | 49% | 1013.4 hPa | 0 mm | - | 168 W/m² | - |
| 1788309077 | 26.67° C | 48% | 1013.5 hPa | 0 mm | - | 185 W/m² | - |
| 1788308773 | 26.67° C | 48% | 1013.4 hPa | 0 mm | - | 201 W/m² | - |
| 1788308468 | 26.67° C | 47% | 1013.4 hPa | 0 mm | - | 222 W/m² | - |
| 1788308162 | 26.67° C | 47% | 1013.3 hPa | 0 mm | - | 240 W/m² | - |
| 1788307857 | 27.22° C | 48% | 1013.3 hPa | 0 mm | - | 265 W/m² | - |
| 1788307552 | 27.22° C | 48% | 1013.3 hPa | 0 mm | - | 275 W/m² | - |
| 1788307248 | 27.22° C | 48% | 1013.5 hPa | 0 mm | - | 303 W/m² | - |
* Rain latest hour (hover to see other rain measurements)
** Current wind speed in m/s (hover to see current wind gust speed)